Location: Lower Kingswood
(51.2667°N, 0.2167°W)
Time: 12:46:04
(UTC+00:00)

COSMOS 2406 - Pass Details

Date: 26 September 2023
Orbit: 843 x 863 km, 71.0° (Epoch: 28 November)

Event Time Altitude Azimuth Distance (km) Brightness Sun altitude
Exits shadow 03:56:16 26° 282° (WNW) 1,643 4.2 -18.6°
Maximum altitude 03:58:10 32° 316° (NW) 1,455 4.2 -18.3°
Drops below altitude 10° 04:03:19 10° 19° (NNE) 2,514 6.2 -17.6°
Sets 04:06:04 0° 29° (NNE) 3,452 7.2 -17.2°
